EW3619 Weather Reports


time (UTC)temp
F
wind
direction
speed
knots
gust
knots
rain 1hr
in
rain 24hr
in
rain mn
in
humidity
%
barometer
mb
20260507104511 52 331 0.9 3.5 0.00 0.00 0.00 1 1015.3
20260507103006 51 336 1.7 3.5 0.00 0.00 0.00 1 1015.2
20260507101502 51 336 1.7 2.6 0.00 0.00 0.00 1 1015.4
20260507100057 51 338 0.9 3.5 0.00 0.00 0.00 1 1015.4
20260507094553 52 351 0.9 3.5 0.00 0.00 0.00 1 1015.5
20260507093052 52 355 0.0 1.7 0.00 0.00 0.00 1 1015.5
20260507091544 52 355 0.9 2.6 0.00 0.00 0.00 1 1015.5
20260507090039 52 344 1.7 3.5 0.00 0.00 0.00 1 1015.7
20260507084537 53 320 1.7 2.6 0.00 0.00 0.00 1 1015.9
20260507083032 53 319 0.9 2.6 0.00 0.00 0.00 1 1016.2
20260507081527 53 319 1.7 4.3 0.00 0.00 0.00 1 1016.2
20260507080024 53 315 1.7 3.5 0.00 0.00 0.00 1 1016.3
20260507074518 53 315 0.0 1.7 0.00 0.00 0.00 1 1016.4
20260507073014 53 303 1.7 4.3 0.00 0.00 0.00 1 1016.3
20260507071510 53 321 0.9 4.3 0.00 0.00 0.00 1 1016.5
20260507070011 53 347 0.9 2.6 0.00 0.00 0.00 1 1016.5
20260507064500 53 317 0.9 2.6 0.00 0.00 0.00 1 1016.6
20260507063057 53 294 0.9 2.6 0.00 0.00 0.00 1 1016.7
20260507061553 54 289 0.0 2.6 0.00 0.00 0.00 1 1016.6
20260507060055 54 275 0.0 2.6 0.00 0.00 0.00 1 1016.6
20260507054548 55 272 0.0 1.7 0.00 0.00 0.00 1 1016.5
20260507053041 55 272 0.0 0.0 0.00 0.00 0.00 1 1016.6
20260507051535 56 272 0.0 0.0 0.00 0.00 0.00 1 1016.8
20260507050030 56 272 0.0 0.0 0.00 0.00 0.00 1 1016.7
20260507044544 57 272 0.0 0.0 0.00 0.00 0.00 1 1016.4
20260507043021 57 272 0.0 0.0 0.00 0.00 0.00 1 1016.5
20260507041517 58 272 0.0 0.9 0.00 0.00 0.00 1 1016.3
20260507040013 59 272 0.0 1.7 0.00 0.00 0.00 1 1016.2
20260507034508 60 267 0.0 1.7 0.00 0.00 0.00 1 1016.2
20260507033004 62 293 0.0 1.7 0.00 0.00 0.00 1 1015.9
20260507031559 62 297 0.0 1.7 0.00 0.00 0.00 1 1015.8
20260507024555 64 310 1.7 5.2 0.00 0.00 0.00 1 1015.7
20260507023045 65 275 1.7 7.8 0.00 0.00 0.00 1 1015.6
20260507021541 65 284 3.5 7.0 0.00 0.00 0.00 1 1015.5
20260507020045 66 269 2.6 7.8 0.00 0.00 0.00 1 1015.4
20260507014535 67 279 3.5 8.7 0.00 0.00 0.00 1 1015.5
20260507013030 69 296 4.3 8.7 0.00 0.00 0.00 1 1015.2
20260507011522 69 326 4.3 9.6 0.00 0.00 0.00 1 1015.2
20260507010025 69 273 4.3 8.7 0.00 0.00 0.00 1 1015.2
20260507004513 70 306 3.5 7.8 0.00 0.00 0.00 1 1015.2
20260507003017 70 304 6.1 10.4 0.00 0.00 0.00 1 1015.1
20260507001510 71 281 3.5 8.7 0.00 0.00 0.00 1 1015.0
20260507000003 70 221 4.3 10.4 0.00 0.00 0.00 1 1015.0
20260506234557 71 311 5.2 10.4 0.00 0.00 0.00 1 1014.9
20260506233053 71 244 5.2 9.6 0.00 0.00 0.00 1 1014.9
20260506231548 71 296 6.1 12.2 0.00 0.00 0.00 1 1014.9
20260506230043 70 288 7.0 11.3 0.00 0.00 0.00 1 1014.8
20260506224549 71 273 5.2 10.4 0.00 0.00 0.00 1 1014.8
20260506223035 70 255 3.5 11.3 0.00 0.00 0.00 1 1014.8
20260506221530 71 317 7.8 13.0 0.00 0.00 0.00 1 1014.8
20260506220029 71 320 7.0 12.2 0.00 0.00 0.00 1 1015.2
20260506214522 71 252 7.0 13.0 0.00 0.00 0.00 1 1015.3
20260506213017 71 308 7.0 13.0 0.00 0.00 0.00 1 1015.4
20260506211513 71 285 6.1 12.2 0.00 0.00 0.00 1 1015.3
20260506210010 72 242 4.3 13.9 0.00 0.01 0.00 1 1015.4
20260506204504 72 277 7.0 11.3 0.00 0.01 0.00 1 1015.6
20260506203059 72 240 5.2 10.4 0.00 0.01 0.00 1 1015.7
20260506201556 72 224 5.2 12.2 0.00 0.01 0.00 1 1015.6
20260506200051 73 222 5.2 9.6 0.00 0.01 0.00 1 1015.5
20260506194558 74 216 7.0 12.2 0.00 0.01 0.00 1 1015.7
20260506193041 73 273 1.7 8.7 0.00 0.01 0.00 1 1015.7
20260506191537 72 350 4.3 9.6 0.00 0.01 0.00 1 1016.1
20260506190033 72 299 2.6 8.7 0.00 0.01 0.00 1 1016.1
20260506184531 71 200 0.9 9.6 0.00 0.01 0.00 1 1016.3
20260506183024 70 340 1.7 5.2 0.00 0.01 0.00 1 1016.3
20260506181519 69 207 3.5 7.0 0.00 0.01 0.00 1 1016.8
20260506180024 69 280 6.1 9.6 0.00 0.01 0.00 1 1016.9
20260506174510 68 329 2.6 7.8 0.00 0.01 0.00 1 1017.1
20260506173005 67 350 3.5 10.4 0.00 0.01 0.00 1 1017.3
20260506171503 67 290 1.7 8.7 0.00 0.01 0.00 1 1017.3
20260506164559 66 324 0.0 4.3 0.00 0.02 0.00 1 1017.1
20260506163049 64 218 0.0 7.8 0.00 0.02 0.00 1 1017.4
20260506161544 62 72 0.0 3.5 0.00 0.02 0.00 1 1017.4
20260506160041 58 119 0.9 6.1 0.00 0.02 0.00 1 1017.3
20260506154534 56 159 0.0 0.9 0.00 0.02 0.00 1 1017.4
20260506153032 55 181 0.9 3.5 0.00 0.02 0.00 1 1017.5
20260506151532 55 196 0.0 2.6 0.00 0.02 0.00 1 1017.6
20260506150021 54 210 0.0 1.7 0.00 0.03 0.00 1 1017.7
20260506144516 53 187 0.0 1.7 0.00 0.03 0.00 1 1017.6
20260506143012 51 132 0.0 0.9 0.00 0.03 0.00 1 1017.7
20260506141507 51 57 0.0 1.7 0.00 0.03 0.00 1 1017.7
20260506140004 51 219 0.0 0.9 0.00 0.03 0.00 1 1017.6
20260506134600 50 209 0.0 1.7 0.00 0.03 0.00 1 1017.5
20260506133102 49 217 0.0 0.9 0.00 0.03 0.00 1 1017.3
20260506131550 48 215 0.9 2.6 0.00 0.03 0.00 1 1017.2
20260506130046 48 326 0.9 2.6 0.00 0.04 0.00 1 1017.1
20260506124541 47 326 0.0 1.7 0.00 0.04 0.00 1 1017.0
20260506123037 47 326 0.0 2.6 0.00 0.04 0.00 1 1016.7
20260506121533 47 331 0.9 2.6 0.00 0.04 0.00 1 1016.8
20260506120037 47 342 1.7 3.5 0.00 0.06 0.00 1 1016.7
20260506114525 47 342 2.6 4.3 0.00 0.06 0.00 1 1016.8
20260506113021 47 339 0.9 2.6 0.00 0.06 0.00 1 1016.6
20260506111516 47 338 0.9 2.6 0.00 0.06 0.00 1 1016.7
20260506110012 47 338 0.0 1.7 0.00 0.09 0.00 1 1016.5